Location: İstanbul
(41.0082°N, 28.9784°E)
Time: 21:28:57
(UTC+03:00)

CAS-6 - Pass Details

Date: 27 April 2024
Orbit: 607 x 628 km, 97.8° (Epoch: 29 May)

Event Time Altitude Azimuth Distance (km) Brightness Sun altitude
Exits shadow 23:58:04 22° 309° (NW) 1,349 ? -32.9°
Drops below altitude 10° 00:00:00 10° 328° (NNW) 1,984 ? -33.0°
Sets 00:02:22 0° 338° (NNW) 2,891 ? -33.1°
